Вернуться в каталог

STARLINK-11181

АктивенСвязьVLEO
NORAD 60059·PAYLOAD·🇺🇸 United States

Запущен Jun 19, 2024 с Vandenberg Space Force Base

Loading…

Ближайшие Пролёты (ближайшие 24 часа)

TLE

СвежийSource: CelesTrak SupGP

Эпоха: Sep 15, 2026, 02:27 UTC

1 60059C 24113A   26258.10256944  .00024187  00000+0  19922-3 0  2580
2 60059  53.1563 337.6049 0001045  83.8368 105.0865 15.69699167    18

Отслеживайте STARLINK-11181 в реальном времени с AllMySat

Download on the App Store